RH
41 45 48 49 54 57 58 61 67 71 69 73 74 71 74 71 68 64 63 66 86 89 88 83 85 86 86 80 90 93 92 98 95 97 98 98 94 94 96 93 95 94 93
42 46 50 54 60 64 64 65 66 69 68 70 72 78 78 79 73 69 66 64 65 79 87 89 88 87 91 90 89 92 98 98 94 97 97 99 97 97 97 96 97 96 97
42 47 48 58 63 67 70 68 68 66 67 69 70 72 73 73 78 75 74 70 68 69 73 84 88 90 93 89 96 98 96 99 99 94 97 99 96 98 98 99 96 97 98
43 45 48 56 62 69 68 69 68 68 62 70 76 81 84 86 80 78 74 74 71 74 74 75 78 88 93 94 96 95 92 92 93 99 91 91 93 96 99 98 99 96 97
45 48 52 54 58 66 74 72 68 68 68 71 76 80 83 80 77 78 79 78 77 76 75 78 79 79 95 94 94 93 89 86 91 89 89 91 97 93 97 98 100 98 95
47 48 48 51 61 68 76 74 70 68 68 71 73 80 82 79 81 80 82 80 81 84 82 78 84 80 79 92 93 89 89 92 86 85 83 79 87 89 97 97 98 97 99
52 53 54 57 61 71 74 65 71 73 70 72 71 76 82 79 83 83 84 85 88 89 88 84 87 89 80 81 91 92 92 93 93 93 91 88 84 87 86 94 99 98 99
48 54 56 61 64 65 71 75 75 77 77 76 77 74 79 82 82 84 83 85 87 86 84 87 85 91 95 90 90 91 92 95 93 93 91 91 87 86 91 86 96 100 99
50 53 58 61 63 64 71 75 76 80 80 80 82 79 80 84 87 86 86 87 88 86 89 89 85 82 87 87 88 82 94 91 91 91 95 93 92 91 92 92 93 93 98
52 54 58 61 63 65 70 76 76 77 80 81 81 81 83 84 86 88 89 88 88 90 93 91 88 85 79 80 83 87 94 94 94 89 96 96 94 92 93 95 97 92 95
56 57 60 62 65 66 68 74 78 80 83 82 82 84 85 85 85 88 88 89 90 89 91 93 90 84 82 79 87 93 92 93 92 94 91 86 86 96 96 95 96 96 93
58 59 61 63 68 70 70 71 77 81 82 81 82 85 84 84 86 88 87 88 89 88 89 92 96 85 76 75 94 94 90 89 94 90 87 84 94 97 97 96 97 97 96
62 65 66 69 72 71 71 73 78 82 82 80 84 86 86 86 87 87 87 86 88 87 86 89 92 94 87 84 92 91 91 90 91 94 94 96 98 98 98 97 96 97 96
65 67 70 71 72 71 74 75 82 83 84 84 86 89 90 89 87 86 86 86 86 88 87 88 90 92 94 97 95 96 96 96 95 96 94 90 91 89 95 96 96 96 98
67 68 69 73 75 75 79 76 81 83 83 86 90 92 90 88 86 86 86 86 87 86 86 88 88 91 93 89 95 96 96 96 98 99 98 99 99 100 99 98 97 96 96
71 70 72 73 79 81 86 85 88 85 84 89 96 94 90 89 91 86 86 86 88 87 87 90 90 92 89 96 96 98 98 97 99 99 98 98 98 99 99 99 99 100 97
75 78 84 87 88 95 95 95 97 92 90 94 94 96 92 97 97 90 87 90 94 89 90 90 91 93 95 96 96 98 96 98 98 99 98 96 96 99 98 99 99 99 98
87 87 94 94 96 97 96 96 96 94 93 92 93 96 91 92 96 94 97 97 94 96 96 94 93 93 94 97 98 99 95 94 96 98 97 97 98 99 98 98 99 99 99
95 100 97 98 99 98 99 99 96 90 85 92 94 96 95 94 93 95 97 98 93 95 96 97 94 93 95 95 94 93 96 94 94 93 95 96 97 98 96 98 99 99 99
98 98 99 98 97 99 99 98 97 97 96 90 85 86 86 89 92 94 97 97 97 97 95 95 96 94 96 97 94 95 94 93 93 94 92 95 97 94 92 96 97 98 100
98 97 97 98 98 97 94 95 96 95 95 91 87 84 83 84 86 88 90 91 90 89 91 93 93 94 96 97 97 94 95 95 93 93 95 95 94 92 92 92 95 98 97
97 96 96 96 80 60 63 76 85 89 86 91 92 89 86 86 85 86 85 88 90 89 89 90 91 90 92 93 94 96 96 96 96 97 97 97 92 90 91 92 91 90 92
97 81 66 61 62 61 62 71 67 72 72 76 81 92 89 88 86 87 87 82 85 89 90 90 91 92 90 90 84 93 97 97 97 98 97 97 96 94 94 92 89 91 93
78 65 63 66 71 71 75 72 66 58 63 70 74 74 78 91 86 82 81 84 85 86 88 91 92 91 90 88 88 91 93 92 95 96 96 97 96 96 96 96 96 96 95
88 80 81 81 82 76 81 81 82 70 70 74 73 76 76 79 88 93 94 91 86 79 89 93 89 92 93 86 74 79 88 90 89 89 90 93 94 95 96 96 96 97 97
91 92 91 89 86 81 84 86 83 82 76 80 80 80 82 84 82 82 95 86 75 68 64 71 84 91 71 74 68 68 69 72 74 84 90 93 93 94 95 96 96 96 96
Wind_Speed
15 17 15 14 15 14 14 11 10 8 7 6 7 8 8 8 8 8 10 11 6 9 12 10 11 11 11 12 10 8 9 3 5 5 3 2 4 5 5 4 5 5 5
17 16 14 13 14 11 9 9 8 7 5 6 5 4 7 5 9 9 11 10 10 7 11 13 12 13 11 11 10 11 3 2 8 4 4 2 1 2 4 4 5 8 4
21 19 14 14 12 12 11 11 10 10 9 11 8 7 6 6 5 7 11 12 14 14 11 15 13 12 11 12 7 4 3 6 1 3 5 2 5 3 2 6 7 8 5
22 18 17 15 13 12 14 11 9 9 10 9 8 9 7 10 8 10 11 12 17 15 15 16 17 15 10 11 11 8 6 16 14 2 3 3 4 4 3 1 4 8 8
21 18 18 15 15 14 11 7 9 8 9 10 8 7 9 9 9 10 15 15 14 15 14 15 16 16 10 12 12 12 12 15 13 11 14 9 3 3 4 4 3 4 7
18 17 17 15 15 11 8 6 11 12 12 12 12 11 12 14 12 12 12 11 11 12 14 14 14 14 15 13 13 15 19 14 13 14 14 13 12 8 4 4 3 8 5
17 16 16 12 15 9 7 9 12 13 15 14 14 15 12 13 14 14 12 16 12 12 14 14 14 9 13 13 11 13 15 15 15 16 12 10 10 4 6 4 4 4 3
17 15 14 12 12 11 9 9 11 13 13 14 15 15 14 9 10 12 13 13 13 14 18 16 15 10 6 10 16 13 11 11 12 14 12 9 10 8 6 8 5 3 2
15 13 16 14 13 11 12 13 12 12 14 14 13 15 15 14 13 16 15 13 15 14 20 17 17 12 14 12 15 15 15 13 12 9 9 7 8 9 7 5 5 7 7
15 13 14 14 12 11 9 11 12 13 14 14 13 12 14 15 15 14 15 16 16 16 16 14 15 16 14 14 18 14 10 14 12 11 9 8 7 11 10 9 5 5 5
13 13 12 10 10 11 11 11 13 14 14 14 14 14 15 15 15 13 14 14 16 16 15 16 16 16 17 14 14 13 13 14 14 15 18 18 17 10 7 8 6 5 5
11 10 10 12 10 11 12 13 13 13 14 14 14 14 14 15 14 15 15 15 16 15 15 14 16 11 11 11 12 13 13 15 16 17 18 18 11 11 9 7 10 7 6
10 10 11 12 13 13 12 12 12 13 13 14 14 15 15 15 15 16 16 15 17 17 16 14 14 15 5 13 13 15 15 13 14 15 13 11 9 8 8 8 8 8 6
15 13 12 12 12 13 12 12 12 13 14 14 15 16 15 15 15 15 16 17 17 18 18 16 16 17 16 14 14 10 9 8 8 7 7 6 7 13 11 9 10 8 8
15 14 13 12 11 11 11 12 13 13 14 14 14 15 14 14 14 15 16 16 17 17 17 16 14 15 15 12 13 9 6 10 7 6 5 5 5 11 6 6 8 10 9
11 10 11 13 13 14 12 12 13 13 12 12 13 13 13 14 15 15 17 17 18 17 16 17 17 17 10 23 31 22 9 8 7 8 8 7 10 12 13 15 14 7 7
10 11 12 12 12 11 11 11 11 11 12 12 13 13 12 14 14 15 15 16 18 16 18 18 18 19 19 26 32 31 14 11 10 9 7 7 5 7 8 14 15 15 13
10 10 9 10 10 9 10 10 9 11 11 12 12 11 14 15 15 16 16 16 13 15 17 19 19 18 19 29 30 21 20 15 17 13 11 7 5 4 7 8 8 9 9
8 5 6 6 7 8 8 7 9 10 12 13 12 13 14 14 15 16 16 14 14 16 16 14 19 20 22 34 27 16 20 12 18 15 16 10 8 10 10 8 9 8 5
5 6 7 7 8 9 8 7 7 8 9 11 13 12 13 14 16 15 15 12 12 13 12 16 18 23 19 32 34 22 12 14 13 14 14 23 17 16 14 9 7 9 5
7 7 7 7 8 8 9 9 5 6 5 5 8 12 13 14 15 13 13 13 13 13 14 15 16 18 21 21 30 30 14 11 10 11 11 11 22 20 20 19 11 7 3
6 8 7 8 8 10 10 11 8 6 7 5 3 8 11 10 12 14 13 13 13 13 14 14 14 14 16 27 27 26 24 17 12 11 8 11 23 22 24 16 20 16 8
5 7 7 9 11 12 13 12 12 6 9 10 10 5 9 11 10 12 13 12 13 12 12 12 11 11 12 12 25 25 24 19 11 9 15 21 19 19 18 26 22 14 8
8 9 10 11 11 11 12 12 13 12 11 12 12 12 11 8 9 8 8 9 11 11 12 11 11 10 10 11 11 11 10 13 10 9 10 11 13 16 14 13 12 9 8
8 9 9 8 8 9 11 12 13 12 10 10 10 11 9 10 5 7 7 7 10 13 9 8 9 11 12 13 18 17 10 9 10 8 9 10 9 10 10 9 10 8 7
8 8 8 8 8 9 9 11 12 10 9 9 8 8 7 7 6 6 3 12 16 22 22 21 17 6 20 24 22 23 24 22 18 10 10 10 10 9 8 8 8 7 8
Wind_Direction
109 95 86 80 74 61 57 45 36 13 4 353 354 343 333 324 319 315 311 320 313 220 221 224 228 222 224 218 203 200 187 177 153 102 46 50 109 174 184 171 171 181 181
103 93 83 76 77 69 61 51 38 13 357 4 348 345 343 330 319 313 306 296 286 267 249 220 222 218 223 227 214 204 169 140 166 135 103 204 275 224 181 167 172 185 170
122 98 83 77 71 65 54 44 25 15 15 2 355 349 330 328 316 317 313 311 313 312 284 245 224 218 215 217 197 202 191 173 320 248 150 159 220 127 198 201 178 188 179
92 90 88 74 65 57 53 35 20 11 2 354 6 358 331 319 312 304 302 301 304 301 301 301 243 220 217 214 195 180 234 160 232 249 232 217 180 169 169 210 197 183 182
95 94 89 82 71 61 48 21 7 359 354 5 6 349 328 310 306 303 302 300 298 297 293 297 281 231 211 213 192 186 194 192 177 181 224 215 240 222 137 159 191 210 198
86 81 79 73 67 61 50 14 5 0 1 359 352 344 332 320 315 307 301 296 296 294 288 279 289 245 229 215 205 194 197 194 202 198 203 198 202 211 164 144 165 206 195
78 69 63 63 65 55 47 27 17 1 353 348 347 338 329 322 313 309 305 301 295 286 282 277 277 264 235 233 220 206 194 192 196 195 196 199 201 193 208 131 148 172 188
74 73 71 65 57 48 37 31 19 4 352 348 342 335 332 327 316 307 307 294 288 282 277 268 263 250 220 212 221 217 205 194 198 199 199 198 200 199 191 183 153 155 180
65 65 61 56 52 41 33 27 7 5 354 350 342 336 335 330 323 315 300 296 293 282 278 254 258 244 229 197 230 221 202 197 200 204 211 211 203 205 201 173 182 151 185
52 55 63 50 43 30 30 27 9 1 354 349 348 341 335 332 323 317 311 307 302 299 296 266 246 238 223 228 226 219 188 182 184 198 181 235 220 219 199 172 204 163 141
61 53 54 49 41 31 20 19 7 359 356 353 348 343 341 336 330 324 316 317 314 313 313 311 252 244 227 214 225 204 188 180 182 192 195 211 218 215 195 165 170 170 156
62 58 50 42 32 28 16 17 8 358 355 352 352 350 342 337 338 328 329 331 327 331 331 323 314 262 236 227 208 203 200 190 195 191 197 214 198 196 187 167 165 190 183
69 57 47 37 29 19 10 12 7 359 354 353 354 356 347 344 344 338 342 341 343 349 347 350 354 345 278 237 209 219 212 204 199 192 190 176 180 191 181 190 181 165 175
45 39 34 27 24 16 5 7 8 5 359 358 360 357 350 350 344 350 350 353 355 359 358 359 3 15 11 27 342 234 191 162 170 195 159 168 201 192 191 186 177 160 175
34 27 24 20 16 11 7 9 9 7 2 0 359 359 352 350 357 3 3 3 6 6 3 0 8 13 22 11 344 309 185 146 150 112 82 79 116 90 116 177 175 173 178
38 31 30 25 20 13 9 9 8 3 0 3 1 1 355 359 6 9 13 13 13 11 13 11 14 20 14 13 16 355 191 151 135 108 93 93 80 77 85 81 73 69 190
47 40 31 33 24 15 12 12 4 356 4 5 3 4 357 8 10 12 18 18 20 9 24 23 20 22 16 15 42 12 31 61 68 78 84 73 58 97 95 87 77 67 57
48 37 28 29 25 15 15 12 3 10 9 9 6 1 9 12 8 14 17 16 14 15 24 24 24 28 21 19 43 32 44 32 42 36 44 59 52 55 113 103 92 70 59
65 42 29 23 10 6 358 1 17 14 17 16 10 7 15 15 14 11 14 15 16 19 21 19 26 31 31 28 30 47 55 7 43 32 37 31 39 37 107 104 101 89 62
50 44 40 30 19 5 354 0 10 17 15 18 19 16 23 23 22 14 13 10 12 23 21 27 24 21 31 33 35 34 52 44 43 27 29 36 44 54 61 81 94 82 24
76 62 46 36 22 11 7 11 344 9 351 4 17 25 25 28 26 19 15 12 19 22 23 27 26 23 22 24 35 42 39 41 44 37 29 35 41 53 65 73 69 78 67
62 63 56 43 35 26 17 19 6 359 4 349 17 38 31 28 27 23 17 17 18 26 24 24 24 19 18 19 22 31 39 35 42 47 33 39 43 47 62 59 67 69 65
51 80 74 52 34 26 22 16 11 21 28 21 18 27 42 34 27 28 23 22 23 24 23 25 23 17 14 16 16 18 26 31 44 38 42 44 41 36 50 52 51 42 46
58 58 56 47 36 20 17 16 14 16 25 31 23 25 31 42 33 32 32 31 31 28 26 23 21 15 16 20 17 16 20 25 28 23 33 36 34 38 39 42 41 49 38
59 54 53 49 34 22 16 10 5 16 24 27 28 26 23 23 44 46 37 36 43 44 31 26 16 16 18 20 28 28 28 31 27 28 36 33 31 32 31 32 36 24 37
60 56 50 45 28 24 17 7 2 356 19 24 25 22 16 12 15 21 26 51 57 44 35 33 28 10 30 24 31 33 36 38 37 43 36 31 31 34 29 26 28 24 34